Weather History for KMGW - January, 2004

Change the Weather History Date:

Friday, January 23, 2004

  Actual Average Record
Temperature  
Mean Temperature 10 °F 31 °F  
Max Temperature 16 °F 39 °F 73 °F (1999)
Min Temperature 6 °F 24 °F -3 °F (1977)
Degree Days  
Heating Degree Days 54 34  
Month to date heating degree days 779  
Since 1 July heating degree days 2763  
Cooling Degree Days 0 0  
Month to date cooling degree days 0  
Year to date cooling degree days 0  
Moisture  
Dew Point 4 °F    
Average Humidity 71    
Maximum Humidity 93    
Minimum Humidity 49    
Precipitation  
Precipitation 0.08 in 0.09 in 1.05 in (2006)
Month to date precipitation 2.08  
Year to date precipitation 2.08  
Sea Level Pressure  
Sea Level Pressure 30.02 in    
Wind  
Wind Speed 8 mph (WSW)    
Max Wind Speed 16 mph    
Max Gust Speed 23 mph    
Visibility 6 miles    
Events Fog , Snow    
T = Trace of Precipitation, MM = Missing Value Source: NWS Daily Summary

Daily Weather History Graph

Daily Weather History Graph

Search for Another Location

Airport or City:

Trip Planner

Search our weather history database for the weather conditions in past years. The results will help you decide how hot, cold, wet, or windy it might be!

Date:

Astronomy

Jan. 23, 2004 Rise Set
Actual Time 7:34 AM EST 5:28 PM EST
Civil Twilight 7:05 AM EST 5:57 PM EST
Nautical Twilight 6:33 AM EST 6:30 PM EST
Astronomical Twilight 6:01 AM EST 7:02 PM EST
Moon 9:11 AM EST (1/23) 7:38 PM EST (1/23)
Length of Visible Light 10h 51m
Length of Day
9h 53m
Waxing Crescent, 4% of the Moon is Illuminated
Jan 23
Waxing Crescent
Jan 29
First Quarter
Feb 6
Full
Feb 13
Last Quarter
Feb 20
New

Hourly Weather History & Observations

Time (EST) Temp. Windchill Dew Point Humidity Pressure Visibility Wind Dir Wind Speed Gust Speed Precip Events Conditions
12:30 AM 10.4 °F -2.4 °F 5.0 °F 79% 30.04 in 2.0 mi WNW 9.2 mph - 0.00 in Snow Light Snow
12:39 AM 10.4 °F -2.4 °F 3.2 °F 73% 30.04 in 9.0 mi WNW 9.2 mph 16.1 mph 0.00 in   Overcast
12:53 AM 10.9 °F -4.7 °F 1.0 °F 64% 30.10 in 10.0 mi West 13.8 mph 19.6 mph 0.00 in   Scattered Clouds
1:53 AM 10.0 °F -7.1 °F -2.0 °F 58% 30.11 in 10.0 mi WNW 16.1 mph 23.0 mph 0.00 in   Overcast
2:53 AM 9.0 °F -5.1 °F -2.9 °F 59% 30.12 in 10.0 mi WNW 10.4 mph - N/A   Overcast
3:53 AM 8.1 °F -7.0 °F -6.0 °F 53% 30.12 in 10.0 mi WNW 11.5 mph 21.9 mph N/A   Mostly Cloudy
4:53 AM 6.1 °F -7.8 °F -6.0 °F 58% 30.15 in 10.0 mi West 9.2 mph - N/A   Partly Cloudy
5:53 AM 6.1 °F -7.8 °F -7.1 °F 55% 30.17 in 10.0 mi West 9.2 mph - N/A   Partly Cloudy
6:53 AM 6.1 °F -2.8 °F -6.0 °F 58% 30.19 in 10.0 mi West 4.6 mph - N/A   Clear
7:53 AM 6.1 °F -4.3 °F -5.1 °F 60% 30.20 in 10.0 mi WSW 5.8 mph - N/A   Clear
8:53 AM 7.0 °F -5.7 °F -4.0 °F 61% 30.19 in 10.0 mi SW 8.1 mph 17.3 mph N/A   Mostly Cloudy
9:53 AM 8.1 °F -7.0 °F -4.0 °F 58% 30.19 in 10.0 mi SW 11.5 mph 18.4 mph N/A   Overcast
10:53 AM 9.0 °F -4.2 °F -4.0 °F 56% 30.20 in 10.0 mi West 9.2 mph - N/A   Overcast
11:53 AM 12.0 °F 2.7 °F -2.9 °F 51% 30.17 in 10.0 mi Variable 5.8 mph 17.3 mph N/A   Scattered Clouds
12:53 PM 12.9 °F 1.6 °F -2.0 °F 51% 30.14 in 10.0 mi SW 8.1 mph - N/A   Scattered Clouds
1:53 PM 14.0 °F -0.2 °F -0.9 °F 52% 30.10 in 10.0 mi SW 12.7 mph 16.1 mph N/A   Overcast
2:53 PM 15.1 °F 3.3 °F -0.9 °F 49% 30.07 in 10.0 mi SW 9.2 mph - N/A   Overcast
3:53 PM 15.1 °F 3.3 °F -0.0 °F 51% 30.06 in 10.0 mi SW 9.2 mph - N/A   Overcast
4:53 PM 15.1 °F 3.3 °F 1.9 °F 56% 30.03 in 10.0 mi SW 9.2 mph - N/A   Overcast
5:53 PM 14.0 °F 5.1 °F 7.0 °F 74% 30.01 in 4.0 mi SW 5.8 mph - 0.00 in Snow Light Snow
6:13 PM 14.0 °F 5.1 °F 8.6 °F 79% 29.93 in 2.5 mi Variable 5.8 mph - 0.00 in Snow Light Snow
6:53 PM 14.0 °F 5.1 °F 10.0 °F 84% 29.99 in 2.0 mi SSW 5.8 mph - 0.00 in Snow Light Snow
7:06 PM 14.0 °F 5.1 °F 10.4 °F 86% 29.91 in 2.5 mi South 5.8 mph - 0.00 in Snow Light Snow
7:14 PM 14.0 °F 3.9 °F 10.4 °F 86% 29.90 in 2.0 mi SSW 6.9 mph - 0.00 in Snow Light Snow
7:53 PM 14.0 °F 5.1 °F 10.9 °F 88% 29.96 in 1.8 mi South 5.8 mph - 0.01 in Snow Light Snow
8:12 PM 14.0 °F 5.1 °F 12.2 °F 93% 29.87 in 1.2 mi South 5.8 mph - 0.01 in Snow Light Snow
8:36 PM 15.8 °F - 12.2 °F 86% 29.86 in 1.8 mi Calm Calm - 0.01 in Snow Light Snow
8:53 PM 15.1 °F 9.4 °F 12.9 °F 91% 29.95 in 1.8 mi NNW 3.5 mph - 0.02 in Snow Light Snow
9:05 PM 15.8 °F - 12.2 °F 86% 29.88 in 0.8 mi Calm Calm - 0.01 in Snow Light Snow
9:16 PM 15.8 °F - 12.2 °F 86% 29.87 in 0.5 mi Calm Calm - 0.02 in Fog , Snow Snow
9:30 PM 15.8 °F - 12.2 °F 86% 29.86 in 1.0 mi Calm Calm - 0.03 in Snow Light Snow
9:53 PM 15.1 °F 9.4 °F 12.9 °F 91% 29.93 in 1.0 mi SSE 3.5 mph - 0.04 in Snow Light Snow
10:26 PM 15.8 °F - 12.2 °F 86% 29.85 in 1.5 mi Calm Calm - 0.01 in Snow Light Snow
10:32 PM 15.8 °F - 12.2 °F 86% 29.85 in 2.0 mi Calm Calm - 0.01 in Snow Light Snow
10:53 PM 15.1 °F 9.4 °F 12.9 °F 91% 29.91 in 4.0 mi SSW 3.5 mph - 0.01 in Snow Light Snow
11:53 PM 16.0 °F 10.4 °F 14.0 °F 92% 29.89 in 5.0 mi South 3.5 mph - 0.00 in   Overcast